• In Latvia
  • List of Countries
  • For 7 days
  • Water Temperature
  • Satellite Maps
  • Weather Map
  • Weather Widgets
  • user-avatar
    Login

    Hourly Weather Brisbane

    Today, 23 September, Saturday

    Time Temperature Precipitation Wind Pressure Humidity
    00:00 +20°C° 0 mm 3 mps 760 mmHg 89%
    01:00 +19°C° 0 mm 3 mps 760 mmHg 89%
    02:00 +19°C° 0 mm 3 mps 760 mmHg 89%
    03:00 +19°C° 0 mm 3 mps 760 mmHg 88%
    04:00 +19°C° 0 mm 3 mps 760 mmHg 88%
    05:00 +19°C° 0 mm 3 mps 760 mmHg 83%
    06:00 +20°C° 0 mm 3 mps 760 mmHg 79%
    07:00 +21°C° 0 mm 3 mps 761 mmHg 74%
    08:00 +25°C° 0 mm 3 mps 760 mmHg 62%
    09:00 +28°C° 0 mm 3 mps 760 mmHg 49%
    10:00 +29°C° 0 mm 3 mps 760 mmHg 44%
    11:00 +31°C° 0 mm 3 mps 760 mmHg 37%
    12:00 +34°C° 0 mm 4 mps 759 mmHg 31%
    13:00 +36°C° 0 mm 4 mps 758 mmHg 25%
    14:00 +36°C° 0 mm 5 mps 758 mmHg 27%
    15:00 +35°C° 0 mm 5 mps 757 mmHg 29%
    16:00 +34°C° 0 mm 6 mps 757 mmHg 32%
    17:00 +32°C° 0 mm 6 mps 757 mmHg 40%
    18:00 +29°C° 0 mm 5 mps 758 mmHg 47%
    19:00 +26°C° 0 mm 5 mps 758 mmHg 55%
    20:00 +26°C° 0 mm 5 mps 758 mmHg 57%
    21:00 +25°C° 0 mm 5 mps 759 mmHg 59%
    22:00 +23°C° 0 mm 4 mps 759 mmHg 61%
    23:00 +23°C° 0 mm 4 mps 759 mmHg 62%

    Tomorrow, 24 September, Sunday

    Time Temperature Precipitation Wind Pressure Humidity
    00:00 +22°C° 0 mm 4 mps 759 mmHg 62%
    01:00 +22°C° 0 mm 4 mps 758 mmHg 63%
    02:00 +21°C° 0 mm 4 mps 758 mmHg 62%
    03:00 +21°C° 0 mm 4 mps 758 mmHg 62%
    04:00 +20°C° 0 mm 3 mps 758 mmHg 62%
    05:00 +21°C° 0 mm 4 mps 758 mmHg 59%
    06:00 +22°C° 0 mm 4 mps 759 mmHg 55%
    07:00 +23°C° 0 mm 4 mps 759 mmHg 51%
    08:00 +27°C° 0 mm 5 mps 759 mmHg 43%
    09:00 +30°C° 0 mm 5 mps 759 mmHg 34%
    10:00 +34°C° 0 mm 5 mps 759 mmHg 25%
    11:00 +36°C° 0 mm 6 mps 758 mmHg 23%
    12:00 +38°C° 0 mm 6 mps 757 mmHg 20%
    13:00 +40°C° 0 mm 7 mps 756 mmHg 18%
    14:00 +39°C° 0 mm 7 mps 756 mmHg 19%
    15:00 +39°C° 0 mm 7 mps 755 mmHg 20%
    16:00 +39°C° 0 mm 7 mps 755 mmHg 21%
    17:00 +35°C° 0 mm 7 mps 756 mmHg 27%
    18:00 +33°C° 0 mm 7 mps 756 mmHg 33%
    19:00 +30°C° 0 mm 7 mps 757 mmHg 39%
    20:00 +29°C° 0 mm 7 mps 757 mmHg 43%
    21:00 +28°C° 0 mm 6 mps 758 mmHg 47%
    22:00 +26°C° 0 mm 6 mps 758 mmHg 51%
    23:00 +26°C° 0 mm 6 mps 758 mmHg 51%

    Day after tomorrow, 25 September, Monday

    Time Temperature Precipitation Wind Pressure Humidity
    00:00 +26°C° 0 mm 5 mps 758 mmHg 51%
    01:00 +25°C° 0 mm 5 mps 758 mmHg 52%
    02:00 +25°C° 0 mm 5 mps 758 mmHg 52%
    03:00 +23°C° 0 mm 4 mps 758 mmHg 53%
    04:00 +23°C° 0 mm 4 mps 758 mmHg 53%
    05:00 +25°C° 0 mm 4 mps 758 mmHg 50%
    06:00 +25°C° 0 mm 3 mps 759 mmHg 48%
    07:00 +26°C° 0 mm 3 mps 759 mmHg 45%
    08:00 +29°C° 0 mm 4 mps 759 mmHg 37%
    09:00 +32°C° 0 mm 4 mps 759 mmHg 29%
    10:00 +35°C° 0 mm 5 mps 760 mmHg 21%
    11:00 +36°C° 0 mm 5 mps 759 mmHg 20%
    12:00 +38°C° 0 mm 6 mps 758 mmHg 18%
    13:00 +39°C° 0 mm 6 mps 757 mmHg 16%
    14:00 +39°C° 0 mm 6 mps 757 mmHg 17%
    15:00 +39°C° 0 mm 6 mps 756 mmHg 19%
    16:00 +38°C° 0 mm 6 mps 756 mmHg 20%
    17:00 +35°C° 0 mm 6 mps 756 mmHg 27%
    18:00 +33°C° 0 mm 6 mps 757 mmHg 33%
    19:00 +29°C° 0 mm 6 mps 757 mmHg 39%
    20:00 +28°C° 0 mm 6 mps 758 mmHg 43%
    21:00 +28°C° 0 mm 5 mps 758 mmHg 46%
    22:00 +27°C° 0 mm 5 mps 759 mmHg 49%
    23:00 +26°C° 0 mm 4 mps 758 mmHg 51%

    26 September, Tuesday

    Time Temperature Precipitation Wind Pressure Humidity
    00:00 +25°C° 0 mm 4 mps 758 mmHg 52%
    01:00 +25°C° 0 mm 4 mps 758 mmHg 54%
    02:00 +24°C° 0 mm 3 mps 758 mmHg 54%
    03:00 +24°C° 0 mm 3 mps 758 mmHg 54%
    04:00 +22°C° 0 mm 3 mps 758 mmHg 54%
    05:00 +24°C° 0 mm 3 mps 758 mmHg 51%
    06:00 +25°C° 0 mm 3 mps 759 mmHg 48%
    07:00 +25°C° 0 mm 3 mps 760 mmHg 45%
    08:00 +27°C° 0 mm 3 mps 760 mmHg 42%
    09:00 +28°C° 0 mm 3 mps 760 mmHg 38%
    10:00 +30°C° 0 mm 3 mps 760 mmHg 35%
    11:00 +33°C° 0 mm 3 mps 759 mmHg 31%
    12:00 +35°C° 0 mm 3 mps 758 mmHg 27%
    13:00 +36°C° 0 mm 4 mps 758 mmHg 23%
    14:00 +36°C° 0 mm 4 mps 757 mmHg 24%
    15:00 +36°C° 0 mm 5 mps 757 mmHg 24%
    16:00 +36°C° 0 mm 5 mps 757 mmHg 25%
    17:00 +34°C° 0 mm 5 mps 757 mmHg 32%
    18:00 +30°C° 0 mm 5 mps 758 mmHg 40%
    19:00 +28°C° 0 mm 5 mps 759 mmHg 47%
    20:00 +27°C° 0 mm 4 mps 759 mmHg 55%
    21:00 +26°C° 0 mm 3 mps 759 mmHg 63%
    22:00 +24°C° 0 mm 3 mps 760 mmHg 71%
    23:00 +24°C° 0 mm 2 mps 760 mmHg 74%

    27 September, Wednesday

    Time Temperature Precipitation Wind Pressure Humidity
    00:00 +23°C° 0 mm 2 mps 759 mmHg 76%
    01:00 +23°C° 0 mm 2 mps 759 mmHg 79%
    02:00 +21°C° 0 mm 2 mps 759 mmHg 81%
    03:00 +21°C° 0 mm 2 mps 759 mmHg 82%
    04:00 +20°C° 0 mm 2 mps 759 mmHg 84%
    05:00 +21°C° 0 mm 2 mps 759 mmHg 80%
    06:00 +23°C° 0 mm 2 mps 760 mmHg 75%
    07:00 +24°C° 0 mm 2 mps 760 mmHg 71%
    08:00 +27°C° 0 mm 2 mps 760 mmHg 58%
    09:00 +30°C° 0 mm 2 mps 760 mmHg 45%
    10:00 +34°C° 0 mm 3 mps 759 mmHg 32%
    11:00 +35°C° 0 mm 4 mps 759 mmHg 29%
    12:00 +37°C° 0 mm 4 mps 758 mmHg 25%
    13:00 +40°C° 0 mm 5 mps 757 mmHg 22%
    14:00 +39°C° 0 mm 6 mps 756 mmHg 23%
    15:00 +39°C° 0 mm 6 mps 756 mmHg 25%
    16:00 +39°C° 0 mm 7 mps 756 mmHg 26%
    17:00 +36°C° 0 mm 7 mps 756 mmHg 30%
    18:00 +34°C° 0 mm 7 mps 757 mmHg 34%
    19:00 +32°C° 0 mm 7 mps 757 mmHg 38%
    20:00 +30°C° 0 mm 7 mps 757 mmHg 38%
    21:00 +30°C° 0 mm 7 mps 757 mmHg 38%
    22:00 +29°C° 0 mm 6 mps 757 mmHg 39%
    23:00 +28°C° 0 mm 6 mps 757 mmHg 38%

    28 September, Thursday

    Time Temperature Precipitation Wind Pressure Humidity
    00:00 +28°C° 0 mm 5 mps 757 mmHg 38%
    01:00 +27°C° 0 mm 5 mps 757 mmHg 38%
    02:00 +26°C° 0 mm 4 mps 757 mmHg 39%
    03:00 +25°C° 0 mm 3 mps 758 mmHg 39%
    04:00 +25°C° 0 mm 2 mps 758 mmHg 40%
    05:00 +25°C° 0 mm 3 mps 759 mmHg 41%
    06:00 +26°C° 0 mm 3 mps 759 mmHg 42%
    07:00 +27°C° 0 mm 3 mps 760 mmHg 43%
    08:00 +29°C° 0 mm 3 mps 760 mmHg 37%
    09:00 +33°C° 0 mm 4 mps 759 mmHg 31%
    10:00 +36°C° 0 mm 4 mps 759 mmHg 25%
    11:00 +38°C° 0 mm 4 mps 758 mmHg 21%
    12:00 +40°C° 0 mm 4 mps 758 mmHg 18%
    13:00 +41°C° 0 mm 5 mps 757 mmHg 15%
    14:00 +41°C° 0 mm 5 mps 757 mmHg 17%
    15:00 +40°C° 0 mm 5 mps 757 mmHg 19%
    16:00 +39°C° 0 mm 5 mps 756 mmHg 21%
    17:00 +35°C° 0 mm 5 mps 757 mmHg 31%
    18:00 +32°C° 0 mm 4 mps 758 mmHg 41%
    19:00 +28°C° 0 mm 4 mps 758 mmHg 51%
    20:00 +27°C° 0 mm 4 mps 759 mmHg 58%
    21:00 +26°C° 0 mm 4 mps 759 mmHg 66%
    22:00 +23°C° 0 mm 4 mps 760 mmHg 73%
    23:00 +23°C° 0 mm 4 mps 759 mmHg 77%
    Show more